EW3623 Weather Reports


Display with metric or nautical units.
time (UTC)temp
F
wind
direction
speed
MPH
gust
MPH
rain 1hr
in
rain 24hr
in
rain mn
in
humidity
%
barometer
mb
20260906115320 71 63 4.0 8.0 0.00 0.00 0.00 89 1018.0
20260906114832 71 54 2.0 8.0 0.00 0.00 0.00 88 1017.9
20260906114552 70 85 1.0 6.0 0.00 0.00 0.00 88 1016.6
20260906114321 71 80 3.0 6.0 0.00 0.00 0.00 89 1017.9
20260906113826 71 57 3.0 5.0 0.00 0.00 0.00 89 1017.9
20260906113331 71 48 2.0 5.0 0.00 0.00 0.00 89 1017.8
20260906113057 70 46 1.0 5.0 0.00 0.00 0.00 89 1016.5
20260906112816 71 46 3.0 5.0 0.00 0.00 0.00 90 1017.7
20260906112324 71 46 3.0 5.0 0.00 0.00 0.00 90 1017.5
20260906111832 70 57 3.0 5.0 0.00 0.00 0.00 90 1017.4
20260906111510 70 44 1.0 4.0 0.00 0.00 0.00 90 1016.2
20260906111341 70 44 1.0 3.0 0.00 0.00 0.00 90 1017.5
20260906110826 70 44 1.0 4.0 0.00 0.00 0.00 90 1017.5
20260906110319 70 46 2.0 4.0 0.00 0.00 0.00 90 1017.5
20260906110001 70 40 0.0 4.0 0.00 0.00 0.00 90 1016.2
20260906105822 70 40 2.0 4.0 0.00 0.00 0.00 90 1017.5
20260906105327 70 51 0.0 0.0 0.00 0.00 0.00 91 1017.3
20260906104817 70 51 0.0 0.0 0.00 0.00 0.00 91 1017.2
20260906104520 70 51 0.0 0.0 0.00 0.00 0.00 90 1015.8
20260906104323 70 52 0.0 0.0 0.00 0.00 0.00 90 1017.1
20260906103829 70 52 0.0 0.0 0.00 0.00 0.00 90 1017.0
20260906103336 70 52 0.0 0.0 0.00 0.00 0.00 90 1017.1
20260906103025 70 52 0.0 0.0 0.00 0.00 0.00 90 1015.8
20260906102823 70 52 0.0 0.0 0.00 0.00 0.00 90 1017.1
20260906102326 70 52 0.0 0.0 0.00 0.00 0.00 89 1017.0
20260906101829 71 52 0.0 2.0 0.00 0.00 0.00 89 1017.0
20260906101537 70 52 0.0 2.0 0.00 0.00 0.00 89 1015.7
20260906101332 71 52 0.0 2.0 0.00 0.00 0.00 89 1017.1
20260906100819 71 52 0.0 4.0 0.00 0.00 0.00 88 1017.0
20260906100352 71 52 0.0 4.0 0.00 0.00 0.00 89 1017.0
20260906100032 71 52 2.0 4.0 0.00 0.00 0.00 89 1015.6
20260906095840 71 50 2.0 3.0 0.00 0.00 0.00 89 1016.9
20260906095354 71 50 0.0 1.0 0.00 0.00 0.00 88 1016.9
20260906094822 71 50 0.0 3.0 0.00 0.00 0.00 88 1016.9
20260906094527 71 50 0.0 3.0 0.00 0.00 0.00 88 1015.5
20260906094329 72 50 0.0 3.0 0.00 0.00 0.00 88 1016.8
20260906093816 72 49 0.0 4.0 0.00 0.00 0.00 88 1016.8
20260906093331 72 50 3.0 4.0 0.00 0.00 0.00 88 1016.8
20260906093049 71 51 2.0 4.0 0.00 0.00 0.00 88 1015.4
20260906092820 72 47 2.0 4.0 0.00 0.00 0.00 88 1016.9
20260906092324 72 37 2.0 4.0 0.00 0.00 0.00 88 1016.9
20260906091833 72 40 3.0 5.0 0.00 0.00 0.00 88 1016.9
20260906091549 71 40 2.0 6.0 0.00 0.00 0.00 88 1015.4
20260906091334 72 46 3.0 6.0 0.00 0.00 0.00 88 1016.8
20260906090827 72 38 2.0 4.0 0.00 0.00 0.00 88 1016.7
20260906090332 72 37 2.0 4.0 0.00 0.00 0.00 88 1016.7
20260906090059 72 38 2.0 4.0 0.00 0.00 0.00 88 1015.4
20260906090001 72 39 2.0 4.0 0.00 0.00 0.00 88 1015.3
20260906085818 72 37 2.0 4.0 0.00 0.00 0.00 88 1016.7
20260906085323 72 30 2.0 5.0 0.00 0.00 0.00 88 1016.7
20260906084829 72 31 2.0 5.0 0.00 0.00 0.00 88 1016.7
20260906084514 72 50 1.0 4.0 0.00 0.00 0.00 88 1015.4
20260906084319 72 51 2.0 4.0 0.00 0.00 0.00 88 1016.7
20260906083836 72 44 1.0 4.0 0.00 0.00 0.00 88 1016.8
20260906083325 72 44 2.0 3.0 0.00 0.00 0.00 87 1016.7
20260906083030 72 44 0.0 3.0 0.00 0.00 0.00 87 1015.3
20260906082830 72 44 1.0 3.0 0.00 0.00 0.00 87 1016.7
20260906082321 73 42 1.0 4.0 0.00 0.00 0.00 87 1016.7
20260906081822 73 42 2.0 5.0 0.00 0.00 0.00 87 1016.7
20260906081544 72 42 3.0 5.0 0.00 0.00 0.00 87 1015.3
20260906081329 73 40 3.0 5.0 0.00 0.00 0.00 87 1016.7
20260906080836 73 51 3.0 5.0 0.00 0.00 0.00 87 1016.9
20260906080323 73 55 2.0 5.0 0.00 0.00 0.00 87 1016.9
20260906080056 72 55 2.0 4.0 0.00 0.00 0.00 87 1015.5
20260906075831 73 56 3.0 6.0 0.00 0.00 0.00 87 1016.9
20260906075337 73 55 3.0 6.0 0.00 0.00 0.00 87 1016.9
20260906074844 73 46 3.0 6.0 0.00 0.00 0.00 87 1016.8
20260906074550 72 24 3.0 6.0 0.00 0.00 0.00 87 1015.5
20260906074316 73 55 4.0 6.0 0.00 0.00 0.00 87 1016.8
20260906073823 73 38 3.0 6.0 0.00 0.00 0.00 87 1016.9
20260906073332 73 57 3.0 6.0 0.00 0.00 0.00 87 1016.9
20260906073057 72 42 3.0 6.0 0.00 0.00 0.00 87 1015.5
20260906072834 73 37 3.0 6.0 0.00 0.00 0.00 87 1016.8
20260906072316 73 55 4.0 6.0 0.00 0.00 0.00 87 1016.9
20260906071817 73 46 3.0 7.0 0.00 0.00 0.00 87 1016.9
20260906071507 72 59 4.0 7.0 0.00 0.00 0.00 87 1015.6
20260906071331 73 57 4.0 7.0 0.00 0.00 0.00 88 1016.9
20260906070825 73 44 3.0 6.0 0.00 0.00 0.00 88 1017.0
20260906070315 73 41 4.0 6.0 0.00 0.00 0.00 88 1017.0
20260906070027 72 17 4.0 6.0 0.00 0.00 0.00 88 1015.6
20260906065820 73 65 4.0 7.0 0.00 0.00 0.00 88 1017.0
20260906065327 73 49 2.0 8.0 0.00 0.00 0.00 88 1017.0
20260906064818 73 38 3.0 9.0 0.00 0.00 0.00 88 1017.0
20260906064545 72 78 5.0 9.0 0.00 0.00 0.00 87 1015.5
20260906064320 73 55 4.0 7.0 0.00 0.00 0.00 87 1016.9
20260906063824 73 58 3.0 7.0 0.00 0.00 0.00 87 1016.9
20260906063331 73 46 4.0 8.0 0.00 0.00 0.00 87 1016.9
20260906063003 72 55 3.0 8.0 0.00 0.00 0.00 87 1015.5
20260906062821 73 68 3.0 8.0 0.00 0.00 0.00 87 1016.9
20260906062333 73 82 6.0 10.0 0.00 0.00 0.00 87 1016.9
20260906061818 73 77 4.0 10.0 0.00 0.00 0.00 86 1016.9
20260906061518 73 69 4.0 9.0 0.00 0.00 0.00 86 1015.5
20260906061353 73 61 4.0 9.0 0.00 0.00 0.00 86 1016.9
20260906060837 73 48 5.0 9.0 0.00 0.00 0.00 86 1016.9
20260906060356 73 45 4.0 9.0 0.00 0.00 0.00 86 1017.0
20260906060026 73 84 5.0 10.0 0.00 0.00 0.00 86 1015.6
20260906055839 74 53 6.0 10.0 0.00 0.00 0.00 86 1016.9
20260906055343 74 42 6.0 10.0 0.00 0.00 0.00 85 1016.9
20260906054849 74 65 4.0 8.0 0.00 0.00 0.00 85 1016.9
20260906054508 73 58 5.0 8.0 0.00 0.00 0.00 85 1015.5
20260906054330 74 21 5.0 8.0 0.00 0.00 0.00 85 1016.9
20260906053902 74 47 5.0 8.0 0.00 0.00 0.00 85 1016.9
20260906053356 74 63 4.0 9.0 0.00 0.00 0.00 85 1016.9
20260906053046 73 21 5.0 9.0 0.00 0.00 0.00 85 1015.4
20260906052824 74 40 4.0 9.0 0.00 0.00 0.00 85 1016.8
20260906052316 74 30 5.0 7.0 0.00 0.00 0.00 86 1016.8
20260906051829 73 59 4.0 7.0 0.00 0.00 0.00 86 1016.8
20260906051508 73 46 4.0 7.0 0.00 0.00 0.00 86 1015.3
20260906051331 73 45 4.0 7.0 0.00 0.00 0.00 86 1016.7
20260906050833 73 49 5.0 10.0 0.00 0.00 0.00 86 1016.6
20260906050318 73 69 6.0 10.0 0.00 0.00 0.00 86 1016.6
20260906050014 73 55 2.0 8.0 0.00 0.00 0.00 86 1015.3
20260906045845 73 79 4.0 8.0 0.00 0.00 0.00 87 1016.7
20260906045339 73 59 4.0 10.0 0.00 0.00 0.00 86 1016.6
20260906044837 73 82 5.0 11.0 0.00 0.00 0.00 86 1016.6
20260906044528 72 54 7.0 11.0 0.00 0.00 0.00 86 1015.0
20260906044322 73 71 6.0 11.0 0.00 0.00 0.00 87 1016.3
20260906043855 73 76 6.0 11.0 0.00 0.00 0.00 87 1016.3
20260906043322 73 66 4.0 10.0 0.00 0.00 0.00 87 1016.3
20260906043029 72 67 6.0 11.0 0.00 0.00 0.00 87 1014.8
20260906042828 73 106 7.0 11.0 0.00 0.00 0.00 87 1016.2
20260906042314 73 63 5.0 11.0 0.00 0.00 0.00 87 1016.0
20260906041817 73 56 6.0 14.0 0.00 0.00 0.00 87 1015.9
20260906041529 72 79 7.0 14.0 0.00 0.00 0.00 87 1014.5
20260906041321 73 57 6.0 14.0 0.00 0.00 0.00 86 1015.9
20260906040830 73 72 8.0 11.0 0.00 0.00 0.00 86 1015.9
20260906040318 73 82 6.0 13.0 0.00 0.00 0.00 86 1015.9
20260906040047 73 60 5.0 13.0 0.00 0.00 0.00 86 1014.5
20260906035822 73 74 6.0 15.0 0.00 0.00 0.00 86 1015.9
20260906035328 73 55 6.0 12.0 0.00 0.00 0.00 86 1015.9
20260906034835 73 46 9.0 14.0 0.00 0.00 0.00 85 1015.9
20260906034604 73 60 8.0 14.0 0.00 0.00 0.00 85 1014.5
20260906034321 73 59 5.0 12.0 0.00 0.00 0.00 85 1015.8
20260906033832 73 73 8.0 12.0 0.00 0.00 0.00 85 1015.8
20260906033328 73 36 8.0 13.0 0.00 0.00 0.00 85 1015.7
20260906033016 73 71 6.0 14.0 0.00 0.00 0.00 85 1014.3
20260906032816 73 81 7.0 14.0 0.00 0.00 0.00 85 1015.7
20260906032346 73 85 9.0 14.0 0.00 0.00 0.00 85 1015.8
20260906031835 73 42 5.0 15.0 0.00 0.00 0.00 85 1015.9
20260906031527 73 78 7.0 15.0 0.00 0.00 0.00 85 1014.5
20260906031322 73 60 9.0 15.0 0.00 0.00 0.00 85 1015.9
20260906030829 73 66 9.0 16.0 0.00 0.00 0.00 85 1015.9
20260906030336 73 64 5.0 10.0 0.00 0.00 0.00 85 1015.9
20260906030021 73 76 5.0 10.0 0.00 0.00 0.00 85 1014.4
20260906025821 73 67 6.0 12.0 0.00 0.00 0.00 85 1015.9
20260906025332 73 82 6.0 12.0 0.00 0.00 0.00 85 1015.9
20260906024833 73 53 6.0 12.0 0.00 0.00 0.00 85 1015.9
20260906024540 73 50 4.0 14.0 0.00 0.00 0.00 85 1014.4
20260906024315 73 74 5.0 14.0 0.00 0.00 0.00 84 1015.9
20260906023828 73 66 6.0 10.0 0.00 0.00 0.00 84 1015.8
20260906023339 73 78 7.0 12.0 0.00 0.00 0.00 84 1015.8
20260906023048 73 78 7.0 13.0 0.00 0.00 0.00 84 1014.3
20260906022855 73 52 7.0 16.0 0.00 0.00 0.00 84 1015.8
20260906022320 73 49 8.0 16.0 0.00 0.00 0.00 84 1015.8
20260906021828 73 96 8.0 14.0 0.00 0.00 0.00 84 1015.7
20260906021539 73 63 9.0 14.0 0.00 0.00 0.00 84 1014.2
20260906021335 73 59 9.0 15.0 0.00 0.00 0.00 84 1015.7
20260906020834 73 65 8.0 15.0 0.00 0.00 0.00 84 1015.8
20260906020338 73 60 6.0 13.0 0.00 0.00 0.00 84 1015.8
20260906020006 73 86 8.0 13.0 0.00 0.00 0.00 84 1014.3
20260906015837 73 65 8.0 13.0 0.00 0.00 0.00 84 1015.8
20260906015344 73 52 8.0 13.0 0.00 0.00 0.00 84 1015.9
20260906014851 73 36 6.0 15.0 0.00 0.00 0.00 84 1016.0
20260906014504 73 19 7.0 15.0 0.00 0.00 0.00 84 1014.5
20260906014335 73 23 6.0 15.0 0.00 0.00 0.00 84 1016.0
20260906013833 74 81 4.0 10.0 0.00 0.00 0.00 84 1015.9
20260906013338 74 30 5.0 15.0 0.00 0.00 0.00 83 1015.9
20260906013012 73 44 7.0 15.0 0.00 0.00 0.00 84 1014.3
20260906012846 74 48 8.0 15.0 0.00 0.00 0.00 84 1015.9
20260906012331 73 39 6.0 11.0 0.00 0.00 0.00 84 1015.9
20260906011840 73 22 7.0 15.0 0.00 0.00 0.00 85 1015.9
20260906011540 73 59 5.0 15.0 0.00 0.00 0.00 85 1014.4
20260906011354 73 66 8.0 17.0 0.00 0.00 0.00 85 1015.9
20260906010818 73 71 7.0 17.0 0.00 0.00 0.00 85 1015.9
20260906010328 73 54 9.0 14.0 0.00 0.00 0.00 84 1015.8
20260906010036 73 98 7.0 12.0 0.00 0.00 0.00 84 1014.2
20260906005830 74 55 7.0 12.0 0.00 0.00 0.00 85 1015.7
20260906005316 73 17 7.0 12.0 0.00 0.00 0.00 85 1015.6
20260906004819 73 53 7.0 18.0 0.00 0.00 0.00 85 1015.5
20260906004608 73 36 6.0 18.0 0.00 0.00 0.00 85 1013.9
20260906004353 73 48 9.0 18.0 0.00 0.00 0.00 85 1015.4
20260906003834 73 61 7.0 16.0 0.00 0.00 0.00 85 1015.3
20260906003321 73 63 5.0 18.0 0.00 0.00 0.00 85 1015.3
20260906003036 73 67 6.0 22.0 0.00 0.00 0.00 84 1013.7
20260906002826 73 100 6.0 22.0 0.00 0.00 0.00 85 1015.3
20260906002335 73 81 10.0 17.0 0.00 0.00 0.00 85 1015.3
20260906001825 73 55 7.0 18.0 0.00 0.00 0.00 84 1015.2
20260906001603 73 34 9.0 18.0 0.00 0.00 0.00 84 1013.6
20260906001334 74 36 11.0 18.0 0.00 0.00 0.00 83 1015.2
20260906000820 74 30 10.0 17.0 0.00 0.00 0.00 84 1015.2
20260906000335 73 25 10.0 18.0 0.00 0.00 0.00 84 1015.2
20260906000008 73 92 9.0 18.0 0.00 0.00 0.00 84 1013.7
20260905235839 73 63 10.0 18.0 0.00 0.00 0.00 84 1015.3
20260905235347 73 64 10.0 16.0 0.00 0.00 0.00 84 1015.2
20260905234837 74 63 8.0 17.0 0.00 0.00 0.00 84 1015.2
20260905234544 74 49 8.0 17.0 0.00 0.00 0.00 83 1013.6
20260905234321 74 59 9.0 15.0 0.00 0.00 0.00 83 1015.2
20260905233829 75 349 9.0 15.0 0.00 0.00 0.00 83 1015.2
20260905233328 75 345 8.0 15.0 0.00 0.00 0.00 82 1015.2
20260905233058 75 58 8.0 15.0 0.00 0.00 0.00 82 1013.5
20260905232815 76 44 10.0 15.0 0.00 0.00 0.00 82 1015.1
20260905232325 76 75 8.0 15.0 0.00 0.00 0.00 81 1015.0
20260905231815 76 59 7.0 19.0 0.00 0.00 0.00 81 1014.9
20260905231522 76 22 8.0 19.0 0.00 0.00 0.00 80 1013.3
20260905231320 77 57 10.0 19.0 0.00 0.00 0.00 79 1014.9
20260905230824 77 39 9.0 16.0 0.00 0.00 0.00 79 1014.8
20260905230332 77 39 8.0 14.0 0.00 0.00 0.00 80 1014.7
20260905230021 77 52 9.0 14.0 0.00 0.00 0.00 79 1013.1
20260905225821 77 69 9.0 17.0 0.00 0.00 0.00 78 1014.7
20260905225331 78 46 8.0 19.0 0.00 0.00 0.00 78 1014.7
20260905224825 78 58 9.0 19.0 0.00 0.00 0.00 77 1014.7
20260905224538 78 61 10.0 18.0 0.00 0.00 0.00 76 1013.0
20260905224335 79 46 10.0 15.0 0.00 0.00 0.00 76 1014.6
20260905223823 80 53 9.0 18.0 0.00 0.00 0.00 76 1014.5
20260905223332 80 82 10.0 18.0 0.00 0.00 0.00 75 1014.4
20260905223006 80 65 9.0 17.0 0.00 0.00 0.00 74 1012.8
20260905222826 80 62 11.0 17.0 0.00 0.00 0.00 74 1014.3
20260905222316 80 49 8.0 17.0 0.00 0.00 0.00 74 1014.4
20260905221853 80 34 7.0 14.0 0.00 0.00 0.00 73 1014.5
20260905221600 80 42 7.0 14.0 0.00 0.00 0.00 73 1012.9
20260905221502 80 45 7.0 14.0 0.00 0.00 0.00 73 1013.0
20260905221344 80 60 9.0 14.0 0.00 0.00 0.00 74 1014.5
20260905220826 80 63 8.0 14.0 0.00 0.00 0.00 72 1014.6
20260905220331 81 42 9.0 16.0 0.00 0.00 0.00 71 1014.5
20260905220048 81 45 7.0 16.0 0.00 0.00 0.00 72 1012.8
20260905215815 81 36 9.0 16.0 0.00 0.00 0.00 72 1014.4
20260905215323 81 57 4.0 10.0 0.00 0.00 0.00 71 1014.4
20260905214832 82 9 4.0 14.0 0.00 0.00 0.00 70 1014.4
20260905214510 82 84 4.0 14.0 0.00 0.00 0.00 70 1012.9
20260905214337 82 118 9.0 14.0 0.00 0.00 0.00 70 1014.5
20260905213820 83 360 8.0 13.0 0.00 0.00 0.00 69 1014.4
20260905213332 82 28 6.0 11.0 0.00 0.00 0.00 69 1014.4
20260905213056 82 45 3.0 10.0 0.00 0.00 0.00 69 1012.9
20260905212822 83 21 5.0 10.0 0.00 0.00 0.00 69 1014.4
20260905212338 82 330 5.0 10.0 0.00 0.00 0.00 70 1014.3
20260905211830 82 17 4.0 10.0 0.00 0.00 0.00 70 1014.4
20260905211606 81 44 5.0 10.0 0.00 0.00 0.00 70 1012.7
20260905211504 81 66 5.0 10.0 0.00 0.00 0.00 70 1012.7
20260905211346 82 30 6.0 10.0 0.00 0.00 0.00 71 1014.3
20260905210835 81 360 6.0 10.0 0.00 0.00 0.00 72 1014.4
20260905210322 81 84 4.0 8.0 0.00 0.00 0.00 73 1014.4
20260905210117 81 41 3.0 8.0 0.00 0.00 0.00 73 1012.8
20260905205828 81 57 6.0 7.0 0.00 0.00 0.00 74 1014.5
20260905205341 80 39 4.0 10.0 0.00 0.00 0.00 76 1014.5
20260905204832 80 10 5.0 10.0 0.00 0.00 0.00 75 1014.7
20260905204558 79 329 5.0 10.0 0.00 0.00 0.00 75 1013.1
20260905204324 80 343 6.0 13.0 0.00 0.00 0.00 75 1014.7
20260905203829 80 67 6.0 13.0 0.00 0.00 0.00 74 1014.6
20260905203324 80 35 6.0 10.0 0.00 0.00 0.00 74 1014.6
20260905203016 80 338 5.0 11.0 0.00 0.00 0.00 74 1012.9
20260905202827 81 53 5.0 11.0 0.00 0.00 0.00 74 1014.5
20260905202314 81 38 6.0 11.0 0.00 0.00 0.00 74 1014.5
20260905201825 80 360 6.0 11.0 0.00 0.00 0.00 74 1014.5
20260905201532 80 32 7.0 14.0 0.00 0.00 0.00 74 1012.9
20260905201318 80 40 6.0 14.0 0.00 0.00 0.00 74 1014.6
20260905200853 80 38 8.0 13.0 0.00 0.00 0.00 74 1014.6
20260905200342 80 336 7.0 14.0 0.00 0.00 0.00 75 1014.7
20260905200032 80 360 8.0 14.0 0.00 0.00 0.00 75 1013.1
20260905195842 80 52 10.0 14.0 0.00 0.00 0.00 75 1014.7
20260905195347 80 27 7.0 12.0 0.00 0.00 0.00 75 1014.7
20260905194835 80 360 6.0 12.0 0.00 0.00 0.00 74 1014.6
20260905194513 80 15 7.0 12.0 0.00 0.00 0.00 75 1013.0
20260905194319 81 38 8.0 12.0 0.00 0.00 0.00 75 1014.6
20260905193830 81 44 6.0 15.0 0.00 0.00 0.00 74 1014.6
20260905193321 81 40 8.0 15.0 0.00 0.00 0.00 74 1014.7
20260905193038 81 34 6.0 15.0 0.00 0.00 0.00 74 1013.1
20260905192816 81 14 5.0 12.0 0.00 0.00 0.00 74 1014.7
20260905192329 81 45 8.0 12.0 0.00 0.00 0.00 73 1014.7
20260905191821 81 64 6.0 15.0 0.00 0.00 0.00 74 1014.7
20260905191557 81 52 6.0 15.0 0.00 0.00 0.00 74 1013.0
20260905191327 81 9 7.0 15.0 0.00 0.00 0.00 74 1014.7
20260905190835 81 11 8.0 13.0 0.00 0.00 0.00 73 1014.7
20260905190327 82 51 7.0 14.0 0.00 0.00 0.00 73 1014.8
20260905190015 81 28 7.0 14.0 0.00 0.00 0.00 73 1013.2
20260905185830 82 42 7.0 14.0 0.00 0.00 0.00 73 1014.8
20260905185318 82 42 3.0 10.0 0.00 0.00 0.00 73 1014.7
20260905184820 82 11 4.0 10.0 0.00 0.00 0.00 73 1014.7
20260905184551 82 24 5.0 12.0 0.00 0.00 0.00 72 1013.0
20260905184316 82 62 6.0 12.0 0.00 0.00 0.00 73 1014.7
20260905183819 82 63 5.0 12.0 0.00 0.00 0.00 73 1014.8
20260905183323 82 46 7.0 13.0 0.00 0.00 0.00 72 1014.9
20260905183053 82 25 7.0 13.0 0.00 0.00 0.00 71 1013.2
20260905182841 83 49 7.0 14.0 0.00 0.00 0.00 72 1014.9
20260905182329 83 38 6.0 12.0 0.00 0.00 0.00 72 1014.9
20260905181824 83 40 8.0 12.0 0.00 0.00 0.00 72 1014.8
20260905181559 82 37 7.0 14.0 0.00 0.00 0.00 72 1013.1
20260905181329 82 94 7.0 14.0 0.00 0.00 0.00 72 1014.8
20260905180835 83 63 10.0 14.0 0.00 0.00 0.00 72 1014.7
20260905180324 83 52 9.0 11.0 0.00 0.00 0.00 71 1014.7
20260905180016 82 17 7.0 12.0 0.00 0.00 0.00 71 1013.0
20260905175820 83 56 7.0 12.0 0.00 0.00 0.00 71 1014.6
20260905175321 83 64 7.0 13.0 0.00 0.00 0.00 71 1014.6
20260905174823 84 40 7.0 13.0 0.00 0.00 0.00 71 1014.7
20260905174526 83 36 6.0 11.0 0.00 0.00 0.00 71 1013.0
20260905174338 83 38 5.0 11.0 0.00 0.00 0.00 72 1014.7
20260905173851 83 40 5.0 10.0 0.00 0.00 0.00 72 1014.8
20260905173342 83 46 7.0 12.0 0.00 0.00 0.00 72 1014.7
20260905173050 83 21 7.0 12.0 0.00 0.00 0.00 72 1013.0
20260905172852 83 33 8.0 12.0 0.00 0.00 0.00 72 1014.6
20260905172318 83 360 5.0 12.0 0.00 0.00 0.00 73 1014.7
20260905171826 83 44 7.0 10.0 0.00 0.00 0.00 73 1014.6
20260905171542 82 54 5.0 10.0 0.00 0.00 0.00 73 1013.0
20260905171324 83 88 5.0 10.0 0.00 0.00 0.00 73 1014.7
20260905170831 83 27 7.0 11.0 0.00 0.00 0.00 72 1014.7
20260905170321 83 11 6.0 11.0 0.00 0.00 0.00 72 1014.6
20260905170055 83 40 5.0 11.0 0.00 0.00 0.00 73 1013.0
20260905165823 83 23 8.0 10.0 0.00 0.00 0.00 73 1014.8
20260905165330 83 22 4.0 10.0 0.00 0.00 0.00 73 1014.8
20260905164819 84 44 4.0 10.0 0.00 0.00 0.00 73 1014.8
20260905164515 83 82 5.0 10.0 0.00 0.00 0.00 72 1013.2
20260905164331 84 34 7.0 10.0 0.00 0.00 0.00 71 1014.9
20260905163834 85 40 7.0 11.0 0.00 0.00 0.00 70 1014.8
20260905163323 84 45 6.0 13.0 0.00 0.00 0.00 72 1014.7
20260905163027 84 317 6.0 13.0 0.00 0.00 0.00 73 1013.1
20260905162827 84 57 6.0 10.0 0.00 0.00 0.00 72 1014.7
20260905162328 84 9 4.0 10.0 0.00 0.00 0.00 72 1014.8
20260905161818 84 55 5.0 11.0 0.00 0.00 0.00 72 1014.8
20260905161538 83 31 5.0 11.0 0.00 0.00 0.00 72 1013.1
20260905161327 84 57 8.0 11.0 0.00 0.00 0.00 72 1014.8
20260905160836 83 37 7.0 10.0 0.00 0.00 0.00 72 1014.7
20260905160342 83 69 7.0 11.0 0.00 0.00 0.00 72 1014.7
20260905160023 83 18 5.0 10.0 0.00 0.00 0.00 73 1013.0
20260905155824 83 53 6.0 10.0 0.00 0.00 0.00 73 1014.7
20260905155319 83 46 7.0 11.0 0.00 0.00 0.00 73 1014.6
20260905154822 83 40 6.0 11.0 0.00 0.00 0.00 74 1014.6
20260905154546 82 52 6.0 11.0 0.00 0.00 0.00 73 1012.9
20260905154404 82 31 7.0 11.0 0.00 0.00 0.00 74 1014.6
20260905153959 82 43 6.0 13.0 0.00 0.00 0.00 74 1014.6
20260905153322 81 51 5.0 13.0 0.00 0.00 0.00 76 1014.5
20260905153006 81 38 7.0 12.0 0.00 0.00 0.00 77 1012.8
20260905152826 81 53 7.0 12.0 0.00 0.00 0.00 76 1014.5
20260905152333 81 47 6.0 12.0 0.00 0.00 0.00 76 1014.4
20260905151819 81 55 6.0 11.0 0.00 0.00 0.00 77 1014.4
20260905151521 80 40 4.0 11.0 0.00 0.00 0.00 77 1012.7
20260905151330 81 62 5.0 11.0 0.00 0.00 0.00 77 1014.3
20260905150817 81 47 7.0 11.0 0.00 0.00 0.00 76 1014.4
20260905150356 82 51 6.0 11.0 0.00 0.00 0.00 77 1014.3
20260905150024 81 39 6.0 11.0 0.00 0.00 0.00 77 1012.6
20260905145827 82 36 6.0 11.0 0.00 0.00 0.00 77 1014.3
20260905145314 82 40 6.0 11.0 0.00 0.00 0.00 77 1014.3
20260905144851 82 311 6.0 13.0 0.00 0.00 0.00 77 1014.3
20260905144516 81 36 7.0 13.0 0.00 0.00 0.00 77 1012.6
20260905144333 81 51 6.0 10.0 0.00 0.00 0.00 78 1014.2
20260905143820 81 45 6.0 13.0 0.00 0.00 0.00 79 1014.2
20260905143355 80 42 7.0 13.0 0.00 0.00 0.00 80 1014.2
20260905143006 80 51 5.0 12.0 0.00 0.00 0.00 80 1012.4
20260905142837 80 58 7.0 12.0 0.00 0.00 0.00 80 1014.2
20260905142344 80 45 8.0 12.0 0.00 0.00 0.00 81 1014.2
20260905141845 80 61 7.0 10.0 0.00 0.00 0.00 82 1014.1
20260905141554 79 35 7.0 12.0 0.00 0.00 0.00 82 1012.4
20260905141330 79 52 7.0 12.0 0.00 0.00 0.00 83 1014.0
20260905140839 79 51 7.0 12.0 0.00 0.00 0.00 83 1014.0
20260905140323 78 55 7.0 12.0 0.00 0.00 0.00 85 1013.9
20260905140027 77 34 6.0 12.0 0.00 0.00 0.00 86 1012.1
20260905135824 78 64 5.0 10.0 0.00 0.00 0.00 86 1013.9
20260905135333 77 30 5.0 10.0 0.00 0.00 0.00 88 1013.9
20260905134841 77 360 5.0 11.0 0.00 0.00 0.00 88 1013.9
20260905134526 76 10 5.0 11.0 0.00 0.00 0.00 89 1012.2
20260905134328 76 32 6.0 11.0 0.00 0.00 0.00 89 1013.9
20260905133829 76 57 8.0 13.0 0.00 0.00 0.00 88 1014.1
20260905133344 76 38 7.0 10.0 0.00 0.00 0.00 89 1014.2
20260905133010 76 44 5.0 9.0 0.00 0.00 0.00 88 1012.6
20260905132830 76 24 5.0 9.0 0.00 0.00 0.00 88 1014.3
20260905132316 76 347 4.0 9.0 0.00 0.00 0.00 89 1014.4
20260905131821 76 44 4.0 10.0 0.00 0.00 0.00 89 1014.2
20260905131519 75 43 5.0 10.0 0.00 0.00 0.00 89 1012.4
20260905131324 76 49 6.0 9.0 0.00 0.00 0.00 89 1014.0
20260905130831 76 56 5.0 8.0 0.00 0.00 0.00 88 1013.9
20260905130320 76 30 5.0 8.0 0.00 0.00 0.00 89 1013.8
20260905130030 76 25 4.0 8.0 0.00 0.00 0.00 90 1012.0
20260905125828 76 59 4.0 8.0 0.00 0.00 0.00 90 1013.6
20260905125333 76 47 4.0 8.0 0.00 0.00 0.00 89 1013.6
20260905124839 76 43 4.0 8.0 0.00 0.00 0.00 89 1013.6
20260905124523 75 9 4.0 8.0 0.00 0.00 0.00 89 1011.9
20260905124329 76 42 4.0 8.0 0.00 0.00 0.00 88 1013.5
20260905123820 76 35 5.0 10.0 0.00 0.00 0.00 89 1013.4
20260905123326 76 34 4.0 10.0 0.00 0.00 0.00 89 1013.3
20260905123102 76 28 6.0 10.0 0.00 0.00 0.00 89 1011.5
20260905122818 76 19 4.0 8.0 0.00 0.00 0.00 88 1013.2
20260905122351 77 42 5.0 8.0 0.00 0.00 0.00 89 1013.3
20260905121841 77 55 5.0 9.0 0.00 0.00 0.00 88 1013.3
20260905121524 76 355 6.0 9.0 0.00 0.00 0.00 89 1011.6
20260905121330 77 51 5.0 8.0 0.00 0.00 0.00 89 1013.2
20260905120840 77 73 4.0 6.0 0.00 0.00 0.00 88 1013.1
20260905120349 77 74 4.0 8.0 0.00 0.00 0.00 88 1013.1
20260905120027 76 61 4.0 8.0 0.00 0.00 0.00 88 1011.4
20260905115816 77 69 5.0 8.0 0.00 0.00 0.00 88 1013.1